Flag for Canada Weather past 2 weeks in Yorkton, Saskatchewan, Canada

Now
55 °F

Scattered clouds.


Feels Like: 53 °F
Forecast: 54 / 66 °F
Wind: 8 mph from Northwest

Location: Yorkton

Current Time: Sep 19, 2014 at 10:03:44 AM

Latest Report: Sep 19, 2014 at 9:00 AM


Visibility: 9 mi

Pressure: 29.58 "Hg

Humidity: 94%

Dew point: 54 °F

Location of YorktonLocation

Historic Weather in Yorkton — Graph

°F

Yorkton temperature yesterday

Maximum temperature yesterday: 73 °F (at 4:00 PM)
Minimum temperature yesterday: 41 °F (at 2:04 AM)
Average temperature yesterday: 57 °F

Past Weeks' High & Low Weather Summary

 TemperatureHumidityPressure
High77 °F (Sep 7, 3:00 PM)100% (Sep 8, 3:00 AM)30.56 "Hg (Sep 8, 3:00 AM)
Low34 °F (Sep 10, 6:00 AM)31% (Sep 16, 3:00 PM)29.47 "Hg (Sep 18, 10:00 PM)
Average51 °F72%30.07 "Hg
* Reported Sep 4 9:00 AM — Sep 19 9:00 AM, Yorkton, Weather by CustomWeather, © 2014

Note: Actual official high and low records may vary slightly from our data, if they occured in-between our weather recording intervals... More about our weather records

Advertising

Yorkton weather history for previous 24 hours

 ConditionsComfort  
Time TempWeatherWind HumidityBarometerVisibility
9:00 AM
Sep 19
55 °FScattered clouds.8 mph94%29.58 "Hg9 mi
8:00 AM54 °FPartly sunny.5 mph94%29.53 "Hg9 mi
7:53 AM54 °FPartly sunny.6 mph94%29.53 "Hg9 mi
7:00 AM54 °FMostly cloudy.7 mph94%29.55 "Hg9 mi
6:00 AM54 °FPassing clouds.10 mph94%29.52 "Hg9 mi
5:00 AM52 °FPassing clouds.6 mph94%29.51 "Hg9 mi
4:00 AM54 °FPassing clouds.6 mph94%29.50 "Hg9 mi
3:00 AM55 °FClear.8 mph94%29.50 "Hg9 mi
2:00 AM57 °FClear.7 mph88%29.50 "Hg9 mi
1:00 AM59 °FPassing clouds.6 mph88%29.49 "Hg9 mi
12:00 AM59 °FPassing clouds.8 mph88%29.50 "Hg9 mi
11:00 PM
Sep 18
63 °FPassing clouds.8 mph77%29.47 "Hg9 mi
10:00 PM63 °FPartly cloudy.8 mph83%29.47 "Hg9 mi
9:00 PM64 °FPassing clouds.6 mph78%29.48 "Hg9 mi
8:00 PM64 °FPartly cloudy.7 mph78%29.49 "Hg9 mi
7:00 PM66 °FPassing clouds.8 mph73%29.49 "Hg9 mi
6:00 PM70 °FPartly sunny.8 mph60%29.50 "Hg9 mi
5:00 PM72 °FSunny.8 mph61%29.52 "Hg9 mi
4:00 PM73 °FSunny.14 mph53%29.53 "Hg9 mi
3:00 PM70 °FSunny.13 mph57%29.55 "Hg9 mi
2:00 PM72 °FSunny.14 mph53%29.58 "Hg9 mi
1:00 PM70 °FSunny.12 mph57%29.61 "Hg9 mi
12:00 PM66 °FSunny.14 mph60%29.65 "Hg9 mi
11:00 AM61 °FSunny.16 mph68%29.68 "Hg9 mi
10:00 AM55 °FSunny.16 mph72%29.71 "Hg9 mi
Weather by CustomWeather, © 2014

See weather overviewHow to use our weather pages